Location: Broletto
(44.6000°N, 10.5833°E)
Time: 01:41:22
(UTC+00:00)

USA 215 - Pass Details

Date: 18 April 2021
Orbit: 1101 x 1107 km, 123.0° (Epoch: 07 May)

Event Time Altitude Azimuth Distance (km) Brightness Sun altitude
Exits shadow 18:58:18 - 93° (E) 3,088 5.0 -9.4°
Reaches altitude 10° 18:58:39 10° 92° (E) 2,957 5.0 -9.5°
Maximum altitude 19:04:45 44° 23° (NNE) 1,486 4.0 -10.5°
Drops below altitude 10° 19:10:51 10° 314° (NW) 2,965 6.9 -11.4°
Sets 19:13:27 0° 308° (NW) 3,925 8.1 -11.8°
